Flag for Bangladesh Weather past 2 weeks in Jessore, Bangladesh

Now
37 °F

Clear.


Feels Like: 29 °F
Forecast: 54 / 76 °F
Wind: 13 mph from Southwest

Location: Kunming Airport

Current Time: Dec 23, 2014 at 2:47:39 AM

Latest Report: Dec 23, 2014 at 2:00 AM


Visibility: 5 mi

Pressure: 30.12 "Hg

Humidity: 100%

Dew point: 37 °F

Location of JessoreLocation

Historic Weather in Jessore — Graph

°F

Jessore temperature yesterday

Maximum temperature yesterday: 52 °F (at 2:00 PM)
Minimum temperature yesterday: 30 °F (at 5:00 AM)
Average temperature yesterday: 40 °F

Past Weeks' High & Low Weather Summary

 TemperatureHumidityPressure
High68 °F (Dec 15, 2:00 PM)100% (Dec 8, 3:00 AM)30.54 "Hg (Dec 8, 3:00 AM)
Low28 °F (Dec 21, 11:00 PM)24% (Dec 14, 1:00 PM)30.07 "Hg (Dec 20, 2:00 PM)
Average43 °F82%30.25 "Hg
* Reported Dec 8 1:00 AM — Dec 23 1:00 AM, Jessore, Weather by CustomWeather, © 2014

Note: Actual official high and low records may vary slightly from our data, if they occured in-between our weather recording intervals... More about our weather records

Advertising

Jessore weather history for previous 24 hours

 ConditionsComfort  
Time TempWeatherWind HumidityBarometerVisibility
1:00 AM
Dec 23
37 °FClear.13 mph100%30.12 "Hg5 mi
12:00 AM37 °FClear.15 mph100%30.12 "Hg4 mi
11:00 PM
Dec 22
37 °FClear.15 mph93%30.15 "Hg4 mi
10:00 PM37 °FClear.10 mph93%30.15 "Hg4 mi
9:00 PM39 °FClear.15 mph87%30.15 "Hg4 mi
8:00 PM39 °FClear.17 mph87%30.15 "Hg10 mi
7:00 PM41 °FClear.17 mph81%30.12 "Hg10 mi
6:00 PM45 °FClear.17 mph66%30.09 "Hg10 mi
5:00 PM45 °FClear.13 mph66%30.09 "Hg10 mi
4:00 PM48 °FSunny.15 mph58%30.09 "Hg10 mi
3:00 PM50 °FSunny.22 mph54%30.07 "Hg10 mi
2:00 PM52 °FSunny.20 mph47%30.07 "Hg10 mi
1:00 PM50 °FSunny.20 mph50%30.09 "Hg10 mi
12:00 PM46 °FPassing clouds.17 mph62%30.15 "HgN/A
11:00 AM45 °FScattered clouds.15 mph66%30.18 "HgN/A
10:00 AM43 °FScattered clouds.13 mph71%30.24 "Hg4 mi
9:00 AM39 °FPassing clouds.15 mph75%30.27 "Hg4 mi
8:00 AM37 °FFog.13 mph93%30.27 "Hg2 mi
7:00 AM34 °FFog.10 mph93%30.27 "Hg2 mi
6:00 AM32 °FIce fog.10 mph93%30.24 "Hg2 mi
5:00 AM30 °FIce fog.6 mph100%30.24 "Hg2 mi
4:00 AM32 °FIce fog.1 mph100%30.24 "Hg2 mi
3:00 AM32 °FIce fog.6 mph100%30.27 "Hg3 mi
2:00 AM34 °FPartly cloudy.6 mph93%30.30 "Hg4 mi
Weather by CustomWeather, © 2014

See weather overviewHow to use our weather pages